Find Starlink 35003

NORAD ID: 65413 Int'l Des: 2025-192 Owner: SPXS Country: US Constellation: starlink operational
LEOCIRCULAR

現在のビュー

3D地球を読み込み中...

About Starlink 35003

Starlink 35003 (NORAD 65413) is a starlink constellation satellite (v2 mini) launched Aug 31, 2025 by SPXS of US. It operates in LEO, CIRCULAR orbit with a mass of 575.00 kg.

Starlink 35003について

説明を読み込み中...

次回通過

Passes for default location (London). Set your location on the main map for personalized predictions.

高度履歴

Loading altitude history...

軌道要素

1 65413U 25192K 26195.13096115 .00016955 00000-0 51183-3 0 9994
2 65413 53.1613 4.9922 0001124 67.5518 292.5603 15.34398585 48747
Epoch: Jul 14, 2026 • Age: 10 hours

現在のステータス

高度 472.1 km
遠地点 / 近地点 N/A
速度 7.63 km/s
衛星直下点 -28.97°S, 72.95°E
打ち上げ日 Aug 31, 2025
運用期間 0.8 years
タイプ internet

技術仕様

分類 Payload
質量 575.00 kg
乾燥質量 530.00 kg
総質量 575.00 kg
長さ 0.30 m
直径 4.10 m
スパン 29.00 m
形状 Box + pan
製造者 SPXS
バスタイプ Starlink V2MO
フェーズステータス In Orbit
所有者/国 SPXS/US

Most Searched